Regional Weather Roundup
Issued by NWS

Home | Current Version | Previous Version | Graphics & Text | Print | Product List | Glossary On
Versions: 1 2 3 4 5 6 7 8 9 10 11 12 13 14 15 16 17 18 19 20 21 22 23 24 25 26 27
000
ASUS45 KCYS 192210
RWRWY

WYOMING REGIONAL WEATHER ROUNDUP
NATIONAL WEATHER SERVICE CHEYENNE WY
300 PM MST THU JAN 19 2017

NOTE:  "FAIR" INDICATES FEW OR NO CLOUDS BELOW 12,000 FEET
WITH NO SIGNIFICANT WEATHER AND/OR OBSTRUCTIONS TO VISIBILITY.

WYZ001-192300-
YELLOWSTONE NATIONAL PARK

CITY           SKY/WX    TMP DP  RH WIND       PRES   REMARKS
LK YELLOWSTONE   N/A     26  22  84 VRB6      29.61F WCI  19
W YELLOWSTONE  NOT AVBL

$$
WYZ002>013-054>058-071-098>099-192300-
NORTHERN WYOMING

CITY           SKY/WX    TMP DP  RH WIND       PRES   REMARKS
JACKSON        LGT SNOW  21  21 100 S8        29.64S WCI  12
CODY           CLOUDY    43  22  43 W16       29.49F
GREYBULL       PTSUNNY   25  17  72 NW5       29.54S WCI  19
WORLAND        PTSUNNY   31  23  72 NE5       29.51F WCI  26
SHERIDAN       FAIR      39  24  55 VRB5      29.48R
BUFFALO        FAIR      45  23  42 CALM      29.49R
GILLETTE       FAIR      44  26  49 SW23      29.46R
HULETT         FAIR      45  25  45 SW12      29.47S
NEWCASTLE      FAIR      43  27  52 CALM      29.50S

$$
WYZ014>020-022>026-101>103-192300-
CENTRAL WYOMING

CITY           SKY/WX    TMP DP  RH WIND       PRES   REMARKS
BIG PINEY      CLOUDY    14  10  84 CALM      29.67F
PINEDALE       FLURRIES  21  14  73 CALM      29.67S
DUBOIS         NOT AVBL
LANDER         FAIR      24  13  62 N3        29.55F
RIVERTON       CLOUDY    19  12  74 SW6       29.57F WCI  11
CASPER         FAIR      41  24  51 SW35G43   29.56F
DOUGLAS        FAIR      47  23  38 W23G32    29.52R

$$
WYZ021-027>030-104>119-192300-
SOUTHERN WYOMING

CITY           SKY/WX    TMP DP  RH WIND       PRES   REMARKS
EVANSTON       LGT SNOW  29  25  85 SW12      29.66F FOG     WCI  19
ROCK SPRINGS   LGT SNOW  16  12  84 NE5       29.67F FOG     WCI   9
RAWLINS        FAIR      32  21  64 SW23G38   29.66S WCI  19
LARAMIE        FAIR      28  19  69 NE8       29.59S WCI  20
CHEYENNE       FAIR      52  13  21 NW13      29.53R
TORRINGTON     FAIR      56  16  20 W9        29.48S

$$




USA.gov is the U.S. government's official web portal to all federal, state and local government web resources and services.